Weather History for KILG - October, 2013

Change the Weather History Date:

Friday, October 11, 2013

  Actual Average Record
Temperature  
Mean Temperature 62 °F 58 °F  
Max Temperature 65 °F 68 °F 87 °F (1954)
Min Temperature 59 °F 48 °F 29 °F (1964)
Degree Days  
Heating Degree Days 3 8  
Month to date heating degree days 24 70  
Since 1 July heating degree days 93 122  
Cooling Degree Days 0 1  
Month to date cooling degree days 45 12  
Year to date cooling degree days 1237 1139  
Growing Degree Days 12 (Base 50)    
Moisture  
Dew Point 59 °F    
Average Humidity 89    
Maximum Humidity 93    
Minimum Humidity 84    
Precipitation  
Precipitation 0.93 in 0.12 in 1.91 in (2002)
Month to date precipitation 1.89 1.34  
Year to date precipitation 40.14 34.42  
Snow  
Snow 0.00 in 0.00 in 0.00 in (1894)
Month to date snowfall 0.0 0.0  
Since 1 July snowfall 0.0 0.0  
Since 1 September snowfall 0.0 0.0  
Snow Depth 0.00 in    
Sea Level Pressure  
Sea Level Pressure 29.98 in    
Wind  
Wind Speed 18 mph (NE)    
Max Wind Speed 24 mph    
Max Gust Speed 32 mph    
Visibility 6 miles    
Events Rain    
T = Trace of Precipitation, MM = Missing Value Source: NWS Daily Summary

Daily Weather History Graph

Daily Weather History Graph

Search for Another Location

Airport or City:

Trip Planner

Search our weather history database for the weather conditions in past years. The results will help you decide how hot, cold, wet, or windy it might be!

Date:

Astronomy

Oct. 11, 2013 Rise Set
Actual Time 7:08 AM EDT 6:28 PM EDT
Civil Twilight 6:41 AM EDT 6:55 PM EDT
Nautical Twilight 6:10 AM EDT 7:27 PM EDT
Astronomical Twilight 5:39 AM EDT 7:58 PM EDT
Moon 1:48 PM EDT (10/11) No Moon Set
Length of Visible Light 12h 14m
Length of Day
11h 20m
Waxing Crescent, 47% of the Moon is Illuminated
Oct 11
Waxing Crescent
Oct 11
First Quarter
Oct 18
Full
Oct 26
Last Quarter
Nov 3
New

Hourly Weather History & Observations

Time (EDT) Temp. Dew Point Humidity Pressure Visibility Wind Dir Wind Speed Gust Speed Precip Events Conditions
12:08 AM 60.8 °F 57.2 °F 88% 29.98 in 4.0 mi NE 17.3 mph 29.9 mph 0.01 in Rain Light Rain
12:19 AM 60.8 °F 57.2 °F 88% 29.98 in 5.0 mi NE 18.4 mph - 0.01 in Rain Light Rain
12:30 AM 60.8 °F 57.2 °F 88% 29.98 in 4.0 mi NE 15.0 mph - 0.02 in Rain Light Rain
12:51 AM 61.0 °F 57.9 °F 90% 29.97 in 4.0 mi NE 15.0 mph - 0.03 in Rain Light Rain
1:51 AM 60.1 °F 57.9 °F 93% 29.97 in 8.0 mi NE 15.0 mph - 0.01 in Rain Light Rain
2:10 AM 59.0 °F 57.2 °F 94% 29.96 in 2.5 mi NE 15.0 mph - 0.06 in Rain Rain
2:20 AM 59.0 °F 57.2 °F 94% 29.96 in 6.0 mi NE 16.1 mph - 0.07 in Rain Light Rain
2:51 AM 60.1 °F 57.0 °F 90% 29.96 in 7.0 mi NE 16.1 mph - 0.09 in Rain Light Rain
3:51 AM 60.1 °F 57.9 °F 93% 29.94 in 5.0 mi NE 17.3 mph - 0.10 in Rain Light Rain
3:58 AM 60.8 °F 57.2 °F 88% 29.94 in 1.8 mi NE 17.3 mph 23.0 mph 0.08 in Rain Heavy Rain
4:17 AM 60.8 °F 57.2 °F 88% 29.94 in 3.0 mi NE 16.1 mph 27.6 mph 0.27 in Rain Rain
4:51 AM 60.1 °F 57.9 °F 93% 29.94 in 5.0 mi NE 17.3 mph 23.0 mph 0.29 in Rain Light Rain
5:51 AM 61.0 °F 57.9 °F 90% 29.95 in 7.0 mi NE 19.6 mph 28.8 mph 0.01 in Rain Light Rain
6:51 AM 60.1 °F 57.9 °F 93% 29.96 in 5.0 mi NE 17.3 mph 25.3 mph 0.04 in Rain Light Rain
7:51 AM 60.1 °F 57.9 °F 93% 29.97 in 7.0 mi NE 15.0 mph - 0.07 in Rain Light Rain
8:20 AM 60.8 °F 57.2 °F 88% 29.97 in 1.8 mi NE 17.3 mph - 0.02 in Rain Light Rain
8:32 AM 60.8 °F 57.2 °F 88% 29.98 in 2.5 mi NE 16.1 mph - 0.02 in Rain Light Rain
8:39 AM 60.8 °F 57.2 °F 88% 29.97 in 4.0 mi NE 17.3 mph 23.0 mph 0.02 in Rain Light Rain
8:51 AM 60.1 °F 57.9 °F 93% 29.98 in 5.0 mi NE 19.6 mph 24.2 mph 0.02 in Rain Light Rain
9:51 AM 61.0 °F 57.9 °F 90% 29.99 in 8.0 mi NE 15.0 mph - 0.00 in   Overcast
10:16 AM 60.8 °F 59.0 °F 94% 29.99 in 2.0 mi NE 16.1 mph 21.9 mph 0.00 in Rain Light Rain
10:34 AM 62.6 °F 59.0 °F 88% 30.00 in 4.0 mi NE 13.8 mph - 0.01 in Rain Light Rain
10:51 AM 62.1 °F 59.0 °F 90% 30.00 in 9.0 mi NE 13.8 mph 21.9 mph 0.01 in   Overcast
11:07 AM 62.6 °F 59.0 °F 88% 29.99 in 1.8 mi NE 17.3 mph 25.3 mph 0.01 in Rain Heavy Rain
11:20 AM 62.6 °F 60.8 °F 94% 29.99 in 3.0 mi NE 18.4 mph 25.3 mph 0.07 in Rain Light Rain
11:51 AM 63.0 °F 60.1 °F 90% 29.99 in 10.0 mi NE 17.3 mph 24.2 mph 0.07 in   Overcast
12:09 PM 62.6 °F 60.8 °F 94% 29.98 in 10.0 mi NE 18.4 mph 25.3 mph N/A   Overcast
12:32 PM 62.6 °F 60.8 °F 94% 29.97 in 10.0 mi NNE 18.4 mph 27.6 mph N/A   Overcast
12:51 PM 63.0 °F 60.1 °F 90% 29.97 in 10.0 mi NE 20.7 mph 25.3 mph 0.00 in Rain Light Rain
1:51 PM 64.0 °F 60.1 °F 87% 29.96 in 10.0 mi NE 18.4 mph 25.3 mph 0.00 in Rain Light Rain
2:51 PM 64.0 °F 60.1 °F 87% 29.96 in 10.0 mi NE 20.7 mph 27.6 mph 0.00 in   Overcast
3:51 PM 64.9 °F 60.1 °F 84% 29.96 in 10.0 mi NE 17.3 mph 25.3 mph N/A   Overcast
4:51 PM 64.0 °F 61.0 °F 90% 29.97 in 9.0 mi NE 19.6 mph 29.9 mph 0.00 in Rain Light Rain
5:17 PM 64.4 °F 60.8 °F 88% 29.97 in 5.0 mi ENE 17.3 mph 26.5 mph 0.00 in Rain Light Rain
5:32 PM 64.4 °F 60.8 °F 88% 29.97 in 3.0 mi NE 19.6 mph 27.6 mph 0.01 in Rain Light Rain
5:51 PM 64.0 °F 61.0 °F 90% 29.97 in 2.5 mi ENE 17.3 mph 26.5 mph 0.02 in Rain Light Rain
6:14 PM 64.4 °F 60.8 °F 88% 29.98 in 4.0 mi NE 17.3 mph 28.8 mph 0.02 in Rain Light Rain
6:33 PM 64.4 °F 60.8 °F 88% 29.98 in 6.0 mi ENE 19.6 mph 31.1 mph 0.02 in Rain Light Rain
6:48 PM 62.6 °F 60.8 °F 94% 29.99 in 2.5 mi NE 18.4 mph 25.3 mph 0.07 in Rain Rain
6:51 PM 63.0 °F 61.0 °F 93% 29.99 in 2.5 mi ENE 20.7 mph 25.3 mph 0.07 in Rain Rain
6:55 PM 62.6 °F 60.8 °F 94% 29.99 in 4.0 mi ENE 20.7 mph - 0.00 in Rain Rain
7:03 PM 62.6 °F 60.8 °F 94% 30.00 in 5.0 mi NE 18.4 mph 26.5 mph 0.01 in Rain Light Rain
7:51 PM 63.0 °F 61.0 °F 93% 30.01 in 5.0 mi NE 18.4 mph 27.6 mph 0.04 in Rain Light Rain
8:14 PM 62.6 °F 60.8 °F 94% 30.01 in 6.0 mi NE 15.0 mph 25.3 mph 0.00 in Rain Light Rain
8:21 PM 62.6 °F 60.8 °F 94% 30.01 in 6.0 mi NE 15.0 mph - 0.00 in Rain Light Rain
8:51 PM 64.0 °F 61.0 °F 90% 30.01 in 10.0 mi ENE 23.0 mph 31.1 mph 0.01 in   Overcast
9:17 PM 64.4 °F 60.8 °F 88% 30.02 in 9.0 mi ENE 19.6 mph 32.2 mph 0.00 in Rain Light Rain
9:28 PM 62.6 °F 60.8 °F 94% 30.03 in 4.0 mi ENE 17.3 mph 24.2 mph 0.01 in Rain Rain
9:51 PM 63.0 °F 61.0 °F 93% 30.03 in 5.0 mi NE 20.7 mph 28.8 mph 0.04 in Rain Light Rain
10:22 PM 64.4 °F 60.8 °F 88% 30.03 in 10.0 mi NE 23.0 mph 28.8 mph 0.04 in   Overcast
10:51 PM 64.0 °F 60.1 °F 87% 30.03 in 10.0 mi NE 16.1 mph 24.2 mph 0.04 in   Overcast
11:32 PM 64.4 °F 59.0 °F 83% 30.02 in 10.0 mi NE 16.1 mph 26.5 mph N/A   Overcast
11:51 PM 64.9 °F 59.0 °F 81% 30.02 in 10.0 mi NE 18.4 mph 25.3 mph N/A   Overcast